Weather History for Terrell, TX

Change the Weather History Date:

Tuesday, April 9, 2013

  Actual Average (KDFW) Record (KDFW)
Temperature  
Mean Temperature 76 °F 64 °F  
Max Temperature 82 °F 75 °F 97 °F (1963)
Min Temperature 69 °F 53 °F 30 °F (1914)
Degree Days  
Heating Degree Days 0 4  
Month to date heating degree days 40  
Since 1 July heating degree days 2233  
Cooling Degree Days 10 3  
Month to date cooling degree days 19  
Year to date cooling degree days 58  
Growing Degree Days 26 (Base 50)    
Moisture  
Dew Point 63 °F    
Average Humidity 71    
Maximum Humidity 87    
Minimum Humidity 52    
Precipitation  
Precipitation 0.00 in 0.09 in 0.77 in (1926)
Month to date precipitation 0.81  
Year to date precipitation 9.09  
Snow  
Snow 0.00 in 0.00 in 0.00 in ()
Month to date snowfall 0.0  
Since 1 July snowfall 1.2  
Snow Depth -    
Sea Level Pressure  
Sea Level Pressure 29.70 in    
Wind  
Wind Speed 16 mph (SSE)    
Max Wind Speed 26 mph    
Max Gust Speed 36 mph    
Visibility 10 miles    
Events      
T = Trace of Precipitation, MM = Missing Value Source: NWS Daily Summary

Daily Weather History Graph

Daily Weather History Graph

Search for Another Location

Airport:

Trip Planner

Search our weather history database for the weather conditions in past years. The results will help you decide how hot, cold, wet, or windy it might be!

Date:

Astronomy

Apr. 09, 2013 Rise Set
Actual Time 7:02 AM CDT 7:51 PM CDT
Civil Twilight 6:37 AM CDT 8:16 PM CDT
Nautical Twilight 6:07 AM CDT 8:45 PM CDT
Astronomical Twilight 5:37 AM CDT 9:16 PM CDT
Moon 6:24 AM CDT (4/9) 7:27 PM CDT (4/9)
Length of Visible Light 13h 38m
Length of Day
12h 48m
Waning Crescent, 1% of the Moon is Illuminated
Apr 9
Waning Crescent
Apr 10
New
Apr 18
First Quarter
Apr 25
Full
May 2
Last Quarter

Hourly Weather History & Observations

Time (CDT) Temp. Heat Index Dew Point Humidity Pressure Visibility Wind Dir Wind Speed Gust Speed Precip Events Conditions
12:53 AM 69.1 °F - 60.1 °F 73% 29.73 in 10.0 mi South 15.0 mph - N/A   Overcast
1:53 AM 69.1 °F - 62.1 °F 78% 29.74 in 10.0 mi SSE 13.8 mph 25.3 mph N/A   Overcast
2:53 AM 69.1 °F - 63.0 °F 81% 29.70 in 10.0 mi SSE 15.0 mph 23.0 mph N/A   Overcast
3:53 AM 69.1 °F - 64.0 °F 84% 29.69 in 10.0 mi SSE 15.0 mph - N/A   Overcast
4:53 AM 69.1 °F - 64.0 °F 84% 29.68 in 9.0 mi SSE 16.1 mph 24.2 mph N/A   Overcast
5:28 AM 69.8 °F - 64.4 °F 83% 29.71 in 9.0 mi SSE 12.7 mph - N/A   Overcast
5:53 AM 70.0 °F - 64.9 °F 84% 29.69 in 9.0 mi SSE 16.1 mph 23.0 mph N/A   Overcast
6:09 AM 69.8 °F - 64.4 °F 83% 29.71 in 9.0 mi SSE 15.0 mph 21.9 mph N/A   Overcast
6:23 AM 69.8 °F - 64.4 °F 83% 29.71 in 9.0 mi SSE 15.0 mph 21.9 mph N/A   Overcast
6:36 AM 69.8 °F - 64.4 °F 83% 29.71 in 9.0 mi SSE 16.1 mph 25.3 mph N/A   Overcast
6:53 AM 69.1 °F - 64.9 °F 87% 29.70 in 9.0 mi SSE 16.1 mph - N/A   Overcast
7:27 AM 69.8 °F - 64.4 °F 83% 29.73 in 9.0 mi SSE 13.8 mph 24.2 mph N/A   Overcast
7:53 AM 70.0 °F - 64.0 °F 81% 29.72 in 10.0 mi SSE 18.4 mph 25.3 mph N/A   Overcast
8:53 AM 70.0 °F - 64.0 °F 81% 29.73 in 10.0 mi SSE 18.4 mph - N/A   Mostly Cloudy
9:53 AM 73.0 °F - 62.1 °F 68% 29.71 in 10.0 mi SSE 21.9 mph 31.1 mph N/A   Partly Cloudy
10:53 AM 75.0 °F - 62.1 °F 64% 29.71 in 10.0 mi SSE 25.3 mph 33.4 mph N/A   Clear
11:53 AM 78.1 °F - 61.0 °F 56% 29.70 in 10.0 mi South 26.5 mph 35.7 mph N/A   Clear
12:53 PM 80.1 °F 81.2 °F 62.1 °F 54% 29.69 in 10.0 mi South 24.2 mph 32.2 mph N/A   Clear
1:53 PM 82.0 °F 83.1 °F 63.0 °F 52% 29.68 in 10.0 mi South 21.9 mph 28.8 mph N/A   Clear
2:53 PM 80.1 °F 81.2 °F 62.1 °F 54% 29.68 in 10.0 mi SSE 16.1 mph - N/A   Overcast
3:53 PM 79.0 °F - 62.1 °F 56% 29.67 in 10.0 mi SSE 12.7 mph - N/A   Overcast
4:53 PM 79.0 °F - 62.1 °F 56% 29.66 in 10.0 mi SSE 9.2 mph - N/A   Overcast
5:53 PM 81.0 °F 82.2 °F 63.0 °F 54% 29.65 in 10.0 mi SSE 9.2 mph - N/A   Scattered Clouds
6:53 PM 80.1 °F 81.2 °F 62.1 °F 54% 29.66 in 10.0 mi SE 5.8 mph - N/A   Overcast
7:53 PM 78.1 °F - 63.0 °F 60% 29.65 in 10.0 mi SSE 12.7 mph - N/A   Scattered Clouds
8:53 PM 77.0 °F - 64.0 °F 64% 29.66 in 10.0 mi SSE 18.4 mph 26.5 mph N/A   Clear
9:53 PM 75.9 °F - 64.0 °F 67% 29.70 in 10.0 mi SSE 10.4 mph 21.9 mph N/A   Clear
10:53 PM 75.0 °F - 64.9 °F 71% 29.73 in 9.0 mi SSE 15.0 mph 23.0 mph N/A   Mostly Cloudy
11:53 PM 73.9 °F - 64.9 °F 73% 29.71 in 9.0 mi SSE 12.7 mph 20.7 mph N/A   Partly Cloudy